GW2382 Weather Reports


Display with metric or nautical units.
time (UTC)temp
F
wind
direction
speed
MPH
gust
MPH
rain 1hr
in
rain 24hr
in
rain mn
in
humidity
%
barometer
mb
20260505004003 71 1 0.0 3.0 0.00 0.00 0.00 61 1006.1
20260505003803 72 1 0.0 3.0 0.00 0.00 0.00 61 1006.0
20260505003603 72 1 0.0 3.0 0.00 0.00 0.00 61 1006.0
20260505003403 72 1 0.0 4.0 0.00 0.00 0.00 60 1005.8
20260505003204 72 2 0.0 4.0 0.00 0.00 0.00 60 1005.9
20260505003004 72 336 0.0 6.0 0.00 0.00 0.00 60 1005.9
20260505002604 72 331 1.0 6.0 0.00 0.00 0.00 60 1005.8
20260505002403 72 315 1.0 9.0 0.00 0.00 0.00 60 1005.8
20260505002203 72 312 2.0 9.0 0.00 0.00 0.00 60 1005.9
20260505002003 72 328 2.0 9.0 0.00 0.00 0.00 60 1006.1
20260505001803 73 342 1.0 9.0 0.00 0.00 0.00 59 1006.1
20260505001604 72 333 1.0 9.0 0.00 0.00 0.00 60 1005.9
20260505001404 73 356 0.0 5.0 0.00 0.00 0.00 59 1005.9
20260505001203 73 1 0.0 5.0 0.00 0.00 0.00 59 1006.1
20260505001003 73 1 0.0 3.0 0.00 0.00 0.00 59 1006.1
20260505000804 73 1 0.0 4.0 0.00 0.00 0.00 59 1006.0
20260505000603 73 5 0.0 4.0 0.00 0.00 0.00 58 1006.0
20260505000405 73 4 0.0 8.0 0.00 0.00 0.00 58 1006.0
20260505000004 73 338 1.0 10.0 0.00 0.00 0.00 58 1005.9
20260504235604 74 328 1.0 10.0 0.00 0.00 0.00 58 1006.0
20260504235404 74 236 1.0 10.0 0.00 0.00 0.00 58 1006.0
20260504235203 74 200 1.0 10.0 0.00 0.00 0.00 58 1006.1
20260504235003 74 163 1.0 6.0 0.00 0.00 0.00 58 1006.1
20260504234804 74 158 1.0 6.0 0.00 0.00 0.00 57 1006.0
20260504234604 74 134 1.0 6.0 0.00 0.00 0.00 56 1006.0
20260504234403 74 302 1.0 6.0 0.00 0.00 0.00 55 1006.3
20260504234205 75 333 0.0 5.0 0.00 0.00 0.00 55 1006.0
20260504234003 75 322 1.0 8.0 0.00 0.00 0.00 55 1006.1
20260504233803 75 301 1.0 8.0 0.00 0.00 0.00 56 1006.3
20260504233404 75 227 1.0 8.0 0.00 0.00 0.00 56 1006.2
20260504233204 75 227 1.0 8.0 0.00 0.00 0.00 55 1006.3
20260504233004 75 258 1.0 8.0 0.00 0.00 0.00 55 1006.3
20260504232804 75 257 2.0 8.0 0.00 0.00 0.00 54 1006.4
20260504232603 75 269 2.0 8.0 0.00 0.00 0.00 54 1006.2
20260504232403 75 284 1.0 8.0 0.00 0.00 0.00 54 1006.5
20260504232203 75 274 1.0 8.0 0.00 0.00 0.00 54 1006.3
20260504232003 75 327 0.0 8.0 0.00 0.00 0.00 55 1006.6
20260504231803 75 341 0.0 5.0 0.00 0.00 0.00 54 1006.6
20260504231603 75 313 1.0 6.0 0.00 0.00 0.00 54 1006.5
20260504231403 75 313 1.0 6.0 0.00 0.00 0.00 53 1006.4
20260504231204 75 331 1.0 11.0 0.00 0.00 0.00 53 1006.4
20260504230803 76 351 3.0 23.0 0.00 0.00 0.00 52 1006.6
20260504230603 76 358 4.0 23.0 0.00 0.00 0.00 52 1006.7
20260504230403 76 358 4.0 23.0 0.00 0.00 0.00 51 1006.6
20260504230204 76 352 4.0 23.0 0.00 0.00 0.00 52 1006.5
20260504230004 76 334 3.0 15.0 0.00 0.00 0.00 52 1006.5
20260504225804 76 325 3.0 15.0 0.00 0.00 0.00 52 1006.7
20260504225603 76 312 2.0 15.0 0.00 0.00 0.00 53 1006.5
20260504225403 76 312 2.0 12.0 0.00 0.00 0.00 52 1006.6
20260504225203 76 322 2.0 15.0 0.00 0.00 0.00 51 1006.8
20260504225004 76 314 3.0 15.0 0.00 0.00 0.00 51 1006.8
20260504224804 76 286 3.0 15.0 0.00 0.00 0.00 50 1006.7
20260504224003 77 191 3.0 18.0 0.00 0.00 0.00 50 1006.5
20260504223803 77 219 3.0 18.0 0.00 0.00 0.00 50 1006.7
20260504223603 77 240 3.0 18.0 0.00 0.00 0.00 50 1006.6
20260504223403 77 251 3.0 18.0 0.00 0.00 0.00 50 1006.7
20260504223204 77 292 4.0 21.0 0.00 0.00 0.00 49 1006.5
20260504223003 78 337 3.0 21.0 0.00 0.00 0.00 50 1006.7
20260504222404 78 4 4.0 21.0 0.00 0.00 0.00 49 1006.7
20260504222204 78 342 5.0 21.0 0.00 0.00 0.00 49 1006.7
20260504222004 78 320 5.0 30.0 0.00 0.00 0.00 49 1006.9
20260504221804 78 314 5.0 31.0 0.00 0.00 0.00 48 1006.7
20260504221604 78 294 5.0 31.0 0.00 0.00 0.00 47 1006.7
20260504221403 79 274 5.0 31.0 0.00 0.00 0.00 47 1006.8
20260504221003 80 234 5.0 31.0 0.00 0.00 0.00 47 1006.7
20260504220804 80 230 5.0 13.0 0.00 0.00 0.00 50 1006.8
20260504220403 80 257 4.0 13.0 0.00 0.00 0.00 50 1006.7
20260504220203 80 284 4.0 13.0 0.00 0.00 0.00 50 1006.9
20260504215804 80 320 3.0 15.0 0.00 0.00 0.00 48 1006.8
20260504215604 80 343 3.0 15.0 0.00 0.00 0.00 47 1006.9
20260504215404 80 16 3.0 15.0 0.00 0.00 0.00 49 1007.1
20260504215003 81 21 2.0 15.0 0.00 0.00 0.00 50 1006.8
20260504214803 81 38 2.0 10.0 0.00 0.00 0.00 50 1006.8
20260504214603 80 310 3.0 20.0 0.00 0.00 0.00 50 1007.1
20260504214404 80 299 4.0 20.0 0.00 0.00 0.00 50 1006.9
20260504214204 80 291 4.0 20.0 0.00 0.00 0.00 49 1007.0
20260504213803 79 284 4.0 20.0 0.00 0.00 0.00 47 1007.3
20260504213604 80 302 4.0 20.0 0.00 0.00 0.00 48 1007.0
20260504213404 79 320 3.0 13.0 0.00 0.00 0.00 47 1007.2
20260504213004 79 314 3.0 13.0 0.00 0.00 0.00 48 1007.2
20260504212803 79 299 3.0 13.0 0.00 0.00 0.00 48 1007.2
20260504212603 79 252 3.0 11.0 0.00 0.00 0.00 47 1007.2
20260504212403 79 212 4.0 11.0 0.00 0.00 0.00 47 1007.2
20260504212203 80 269 4.0 15.0 0.00 0.00 0.00 47 1007.4
20260504212004 80 332 4.0 15.0 0.00 0.00 0.00 48 1007.3
20260504211803 80 39 4.0 15.0 0.00 0.00 0.00 49 1007.3
20260504211603 80 345 4.0 16.0 0.00 0.00 0.00 50 1007.4
20260504211203 80 343 4.0 16.0 0.00 0.00 0.00 49 1007.5
20260504211003 80 325 4.0 16.0 0.00 0.00 0.00 48 1007.5
20260504210803 80 299 4.0 16.0 0.00 0.00 0.00 48 1007.5
20260504210403 81 320 4.0 15.0 0.00 0.00 0.00 48 1007.4
20260504210004 81 294 4.0 17.0 0.00 0.00 0.00 49 1007.6
20260504205804 81 342 4.0 17.0 0.00 0.00 0.00 47 1007.7
20260504205603 81 236 4.0 21.0 0.00 0.00 0.00 48 1007.7
20260504205403 81 246 4.0 21.0 0.00 0.00 0.00 47 1007.7
20260504205203 81 279 4.0 21.0 0.00 0.00 0.00 47 1007.7
20260504205003 81 299 3.0 21.0 0.00 0.00 0.00 48 1007.7
20260504204603 81 352 3.0 12.0 0.00 0.00 0.00 49 1007.8
20260504204403 81 8 3.0 12.0 0.00 0.00 0.00 48 1007.9
20260504204004 81 352 3.0 12.0 0.00 0.00 0.00 47 1007.8
20260504203804 81 342 3.0 12.0 0.00 0.00 0.00 50 1007.9
20260504203404 81 334 3.0 13.0 0.00 0.00 0.00 50 1008.0
20260504203203 81 337 3.0 13.0 0.00 0.00 0.00 48 1007.9
20260504203004 81 338 3.0 13.0 0.00 0.00 0.00 50 1008.0
20260504202803 80 3 3.0 13.0 0.00 0.00 0.00 50 1008.0
20260504202603 80 150 4.0 12.0 0.00 0.00 0.00 49 1007.9
20260504202403 80 170 5.0 21.0 0.00 0.00 0.00 48 1008.2
20260504202204 80 214 5.0 21.0 0.00 0.00 0.00 48 1008.1
20260504202004 80 248 5.0 21.0 0.00 0.00 0.00 49 1008.1
20260504201804 80 221 5.0 21.0 0.00 0.00 0.00 47 1008.1
20260504201604 80 286 5.0 21.0 0.00 0.00 0.00 47 1008.4
20260504201404 80 302 4.0 13.0 0.00 0.00 0.00 49 1008.0
20260504201204 80 317 5.0 13.0 0.00 0.00 0.00 49 1008.4
20260504201004 80 314 5.0 13.0 0.00 0.00 0.00 48 1008.3
20260504200604 80 326 5.0 13.0 0.00 0.00 0.00 47 1008.4
20260504200403 80 327 5.0 17.0 0.00 0.00 0.00 47 1008.5
20260504200204 80 335 5.0 17.0 0.00 0.00 0.00 47 1008.6
20260504200004 80 341 5.0 17.0 0.00 0.00 0.00 47 1008.8
20260504195804 80 332 5.0 17.0 0.00 0.00 0.00 47 1008.7
20260504195603 80 308 5.0 17.0 0.00 0.00 0.00 47 1008.8
20260504195404 80 310 5.0 17.0 0.00 0.00 0.00 48 1008.7
20260504195204 80 297 4.0 13.0 0.00 0.00 0.00 47 1008.8
20260504194803 80 305 3.0 13.0 0.00 0.00 0.00 47 1008.9
20260504194603 80 1 3.0 11.0 0.00 0.00 0.00 48 1009.1
20260504194404 80 351 4.0 12.0 0.00 0.00 0.00 49 1008.9
20260504193803 79 358 5.0 20.0 0.00 0.00 0.00 47 1009.0
20260504193604 79 359 4.0 20.0 0.00 0.00 0.00 47 1009.0
20260504193404 80 301 4.0 25.0 0.00 0.00 0.00 46 1009.2
20260504193203 80 253 4.0 25.0 0.00 0.00 0.00 46 1009.1
20260504193003 80 248 4.0 25.0 0.00 0.00 0.00 49 1009.2
20260504192803 80 275 4.0 25.0 0.00 0.00 0.00 50 1009.2
20260504192603 80 294 4.0 25.0 0.00 0.00 0.00 47 1009.0
20260504192404 80 317 4.0 25.0 0.00 0.00 0.00 48 1009.2
20260504192204 80 322 4.0 12.0 0.00 0.00 0.00 48 1009.1
20260504192004 80 303 4.0 12.0 0.00 0.00 0.00 49 1009.1
20260504191803 80 309 4.0 11.0 0.00 0.00 0.00 50 1009.1
20260504191604 80 301 4.0 11.0 0.00 0.00 0.00 47 1009.2
20260504191404 80 288 4.0 11.0 0.00 0.00 0.00 47 1009.4
20260504191203 80 297 4.0 9.0 0.00 0.00 0.00 48 1009.4
20260504190803 80 325 4.0 23.0 0.00 0.00 0.00 47 1009.3
20260504190603 79 12 4.0 23.0 0.00 0.00 0.00 48 1009.4
20260504190404 79 64 5.0 23.0 0.00 0.00 0.00 47 1009.6
20260504190204 79 89 5.0 23.0 0.00 0.00 0.00 46 1009.7
20260504190004 79 92 5.0 23.0 0.00 0.00 0.00 46 1009.5
20260504185803 79 83 5.0 23.0 0.00 0.00 0.00 46 1009.6
20260504185203 79 298 4.0 11.0 0.00 0.00 0.00 46 1009.4
20260504185004 80 317 4.0 11.0 0.00 0.00 0.00 47 1009.7
20260504184803 79 324 4.0 11.0 0.00 0.00 0.00 47 1009.6
20260504184603 79 343 4.0 12.0 0.00 0.00 0.00 48 1009.6
20260504184403 79 337 4.0 12.0 0.00 0.00 0.00 47 1009.9
20260504184203 79 347 4.0 12.0 0.00 0.00 0.00 48 1009.7
20260504184004 78 336 5.0 12.0 0.00 0.00 0.00 48 1009.6
20260504183604 78 309 4.0 13.0 0.00 0.00 0.00 47 1009.8
20260504183403 78 294 4.0 15.0 0.00 0.00 0.00 48 1009.7
20260504183203 78 262 4.0 15.0 0.00 0.00 0.00 49 1009.6
20260504183003 78 265 5.0 16.0 0.00 0.00 0.00 48 1009.6
20260504182803 77 271 6.0 18.0 0.00 0.00 0.00 47 1009.7
20260504182604 78 273 6.0 18.0 0.00 0.00 0.00 47 1009.9
20260504182203 78 332 6.0 20.0 0.00 0.00 0.00 47 1010.1
20260504182003 78 1 5.0 20.0 0.00 0.00 0.00 46 1010.0
20260504181803 78 24 4.0 20.0 0.00 0.00 0.00 46 1009.8
20260504181603 79 335 4.0 20.0 0.00 0.00 0.00 47 1009.9
20260504181403 79 283 3.0 11.0 0.00 0.00 0.00 48 1009.9
20260504181204 78 275 3.0 11.0 0.00 0.00 0.00 48 1010.0
20260504181003 78 272 3.0 11.0 0.00 0.00 0.00 48 1010.1
20260504180803 78 279 3.0 17.0 0.00 0.00 0.00 48 1010.0
20260504180603 78 277 4.0 17.0 0.00 0.00 0.00 48 1010.1
20260504180403 78 262 4.0 20.0 0.00 0.00 0.00 48 1010.1
20260504180204 78 260 4.0 20.0 0.00 0.00 0.00 48 1010.1
20260504180004 78 272 4.0 20.0 0.00 0.00 0.00 48 1010.2
20260504175804 78 246 4.0 20.0 0.00 0.00 0.00 47 1010.2
20260504175604 78 237 4.0 20.0 0.00 0.00 0.00 47 1010.4
20260504175404 78 275 4.0 16.0 0.00 0.00 0.00 51 1010.5
20260504175203 78 294 4.0 16.0 0.00 0.00 0.00 49 1010.2
20260504175003 77 284 5.0 16.0 0.00 0.00 0.00 49 1010.3
20260504174803 77 284 5.0 16.0 0.00 0.00 0.00 48 1010.2
20260504174603 77 309 5.0 16.0 0.00 0.00 0.00 48 1010.5
20260504174404 77 323 5.0 16.0 0.00 0.00 0.00 47 1010.4
20260504174203 77 327 5.0 16.0 0.00 0.00 0.00 47 1010.7
20260504174004 78 351 5.0 16.0 0.00 0.00 0.00 48 1010.6
20260504173803 77 15 4.0 15.0 0.00 0.00 0.00 48 1010.7
20260504173604 77 18 4.0 15.0 0.00 0.00 0.00 48 1010.7
20260504173403 77 11 4.0 18.0 0.00 0.00 0.00 47 1010.7
20260504173203 77 27 5.0 18.0 0.00 0.00 0.00 49 1010.9
20260504173003 77 15 4.0 18.0 0.00 0.00 0.00 49 1010.6
20260504172803 77 2 5.0 18.0 0.00 0.00 0.00 48 1010.8
20260504172603 77 348 5.0 18.0 0.00 0.00 0.00 47 1011.0
20260504172403 77 354 5.0 18.0 0.00 0.00 0.00 48 1010.6
20260504172203 77 336 4.0 17.0 0.00 0.00 0.00 48 1011.1
20260504172004 77 314 4.0 20.0 0.00 0.00 0.00 48 1010.9
20260504171604 77 270 5.0 27.0 0.00 0.00 0.00 48 1011.1
20260504171404 77 262 5.0 27.0 0.00 0.00 0.00 48 1010.9
20260504171203 77 260 6.0 27.0 0.00 0.00 0.00 48 1011.2
20260504171003 77 274 5.0 27.0 0.00 0.00 0.00 48 1011.1
20260504170803 77 273 5.0 27.0 0.00 0.00 0.00 48 1011.1
20260504170604 77 273 4.0 23.0 0.00 0.00 0.00 48 1011.1
20260504170404 77 265 4.0 23.0 0.00 0.00 0.00 48 1011.1
20260504170204 76 264 4.0 16.0 0.00 0.00 0.00 50 1011.1
20260504160403 74 211 4.0 15.0 0.00 0.00 0.00 55 1011.8
20260504151004 70 309 4.0 17.0 0.00 0.00 0.00 62 1011.9
20260504150804 70 299 5.0 17.0 0.00 0.00 0.00 63 1011.9
20260504150404 70 299 6.0 17.0 0.00 0.00 0.00 61 1011.9
20260504150203 70 290 6.0 17.0 0.00 0.00 0.00 61 1012.0
20260504141204 66 270 2.0 12.0 0.00 0.00 0.00 72 1012.1
20260504141003 66 274 1.0 10.0 0.00 0.00 0.00 72 1012.2
20260504140803 65 294 2.0 10.0 0.00 0.00 0.00 74 1012.3
20260504140604 65 321 2.0 10.0 0.00 0.00 0.00 74 1012.3
20260504140403 65 346 2.0 10.0 0.00 0.00 0.00 74 1012.3
20260504130805 60 340 1.0 6.0 0.00 0.00 0.00 85 1012.4
20260504130604 60 353 1.0 8.0 0.00 0.00 0.00 86 1012.5
20260504130403 60 350 1.0 8.0 0.00 0.00 0.00 86 1012.2
20260504130204 60 3 1.0 8.0 0.00 0.00 0.00 86 1012.4
20260504120204 58 1 0.0 1.0 0.00 0.00 0.00 85 1011.6
20260504110603 59 298 0.0 4.0 0.00 0.00 0.00 82 1011.1
20260504110404 59 315 0.0 4.0 0.00 0.00 0.00 82 1011.3
20260504110204 59 317 0.0 4.0 0.00 0.00 0.00 82 1011.3
20260504100603 60 1 0.0 5.0 0.00 0.00 0.00 80 1011.7
20260504100403 60 1 0.0 5.0 0.00 0.00 0.00 80 1011.5
20260504100203 60 1 0.0 5.0 0.00 0.00 0.00 80 1011.6
20260504082004 61 147 0.0 4.0 0.00 0.00 0.00 77 1011.9
20260504081804 62 142 0.0 4.0 0.00 0.00 0.00 77 1012.2
20260504081604 62 224 0.0 4.0 0.00 0.00 0.00 77 1011.8
20260504081403 62 270 0.0 4.0 0.00 0.00 0.00 77 1011.6
20260504081203 62 277 0.0 4.0 0.00 0.00 0.00 77 1011.6
20260504081003 62 301 0.0 4.0 0.00 0.00 0.00 77 1011.9
20260504080803 62 296 0.0 3.0 0.00 0.00 0.00 76 1011.8
20260504080604 62 291 0.0 3.0 0.00 0.00 0.00 76 1011.9
20260504080404 62 301 0.0 3.0 0.00 0.00 0.00 76 1011.7
20260504080204 62 315 0.0 3.0 0.00 0.00 0.00 76 1012.0
20260504070403 64 1 1.0 12.0 0.00 0.00 0.00 72 1012.1
20260504070204 64 352 1.0 12.0 0.00 0.00 0.00 72 1012.2
20260504060203 66 350 2.0 9.0 0.00 0.00 0.00 68 1012.4
20260504050403 67 283 2.0 10.0 0.00 0.00 0.00 65 1012.5
20260504050203 67 283 2.0 10.0 0.00 0.00 0.00 65 1012.6
20260504050004 67 305 2.0 10.0 0.00 0.00 0.00 65 1012.5
20260504045803 67 295 2.0 10.0 0.00 0.00 0.00 65 1012.8
20260504045204 67 309 2.0 9.0 0.00 0.00 0.00 65 1012.5
20260504044603 67 289 1.0 9.0 0.00 0.00 0.00 65 1012.5
20260504044203 67 279 1.0 9.0 0.00 0.00 0.00 65 1012.6
20260504044003 67 292 1.0 9.0 0.00 0.00 0.00 65 1012.4
20260504043803 67 316 1.0 9.0 0.00 0.00 0.00 65 1012.5
20260504043603 67 329 1.0 9.0 0.00 0.00 0.00 66 1012.6
20260504043404 67 338 1.0 8.0 0.00 0.00 0.00 65 1012.4
20260504043204 67 343 1.0 8.0 0.00 0.00 0.00 64 1012.5
20260504043003 67 321 2.0 10.0 0.00 0.00 0.00 65 1012.7
20260504042803 67 316 2.0 18.0 0.00 0.00 0.00 65 1012.7
20260504042603 67 316 2.0 18.0 0.00 0.00 0.00 65 1012.6
20260504042404 67 324 2.0 18.0 0.00 0.00 0.00 65 1012.5
20260504042204 67 324 2.0 18.0 0.00 0.00 0.00 65 1012.5
20260504042004 67 325 2.0 18.0 0.00 0.00 0.00 65 1012.5
20260504041604 67 301 1.0 10.0 0.00 0.00 0.00 67 1012.5
20260504041403 67 272 1.0 6.0 0.00 0.00 0.00 65 1012.8
20260504041203 67 261 0.0 6.0 0.00 0.00 0.00 65 1012.5
20260504041004 67 279 0.0 8.0 0.00 0.00 0.00 65 1012.8
20260504040603 67 287 1.0 8.0 0.00 0.00 0.00 65 1012.8
20260504040403 67 304 1.0 8.0 0.00 0.00 0.00 65 1012.8
20260504040004 67 318 1.0 8.0 0.00 0.00 0.00 66 1012.8
20260504035804 67 324 2.0 8.0 0.00 0.00 0.00 66 1012.6
20260504035604 67 343 1.0 8.0 0.00 0.00 0.00 66 1012.8
20260504035404 67 328 1.0 8.0 0.00 0.00 0.00 66 1012.8
20260504035203 67 319 1.0 8.0 0.00 0.00 0.00 67 1012.8
20260504035003 67 330 1.0 8.0 0.00 0.00 0.00 68 1012.8
20260504034803 67 344 0.0 6.0 0.00 0.00 0.00 68 1012.9
20260504034603 67 343 0.0 5.0 0.00 0.00 0.00 68 1012.8
20260504034404 67 352 0.0 6.0 0.00 0.00 0.00 68 1012.7
20260504034204 67 349 1.0 6.0 0.00 0.00 0.00 68 1012.8
20260504034004 67 341 1.0 6.0 0.00 0.00 0.00 68 1012.9
20260504033603 67 326 0.0 6.0 0.00 0.00 0.00 68 1012.9
20260504033403 67 297 0.0 4.0 0.00 0.00 0.00 69 1012.7
20260504033203 66 318 1.0 8.0 0.00 0.00 0.00 69 1012.7
20260504032803 66 341 1.0 8.0 0.00 0.00 0.00 70 1012.9
20260504032603 66 357 1.0 8.0 0.00 0.00 0.00 70 1012.9
20260504032203 65 356 0.0 4.0 0.00 0.00 0.00 72 1012.8
20260504032004 65 347 0.0 4.0 0.00 0.00 0.00 72 1012.9
20260504031803 65 330 0.0 3.0 0.00 0.00 0.00 72 1012.8
20260504031604 65 343 0.0 3.0 0.00 0.00 0.00 72 1012.8
20260504031403 65 333 0.0 3.0 0.00 0.00 0.00 72 1013.0
20260504031004 65 170 0.0 4.0 0.00 0.00 0.00 72 1013.0
20260504030804 64 108 0.0 5.0 0.00 0.00 0.00 72 1012.7
20260504030603 64 157 0.0 5.0 0.00 0.00 0.00 72 1012.8
20260504030404 64 157 0.0 5.0 0.00 0.00 0.00 72 1012.9
20260504030203 64 5 0.0 5.0 0.00 0.00 0.00 72 1012.9
20260504025804 64 1 0.0 5.0 0.00 0.00 0.00 72 1012.8
20260504025403 65 0 0.0 0.0 0.00 0.00 0.00 71 1012.9
20260504025203 65 0 0.0 0.0 0.00 0.00 0.00 71 1012.9
20260504025004 65 0 0.0 0.0 0.00 0.00 0.00 71 1013.0
20260504024603 65 0 0.0 0.0 0.00 0.00 0.00 71 1012.7
20260504024403 65 0 0.0 0.0 0.00 0.00 0.00 71 1013.1
20260504024203 65 0 0.0 0.0 0.00 0.00 0.00 71 1012.8
20260504024004 65 0 0.0 0.0 0.00 0.00 0.00 70 1012.9
20260504023603 65 0 0.0 0.0 0.00 0.00 0.00 70 1012.7
20260504023004 65 0 0.0 0.0 0.00 0.00 0.00 70 1012.6
20260504022603 65 0 0.0 0.0 0.00 0.00 0.00 70 1012.6
20260504022404 65 0 0.0 0.0 0.00 0.00 0.00 70 1012.5
20260504022204 65 0 0.0 0.0 0.00 0.00 0.00 70 1012.7
20260504022004 65 0 0.0 0.0 0.00 0.00 0.00 70 1012.6
20260504021603 65 0 0.0 0.0 0.00 0.00 0.00 70 1012.7
20260504021403 65 0 0.0 0.0 0.00 0.00 0.00 70 1012.7
20260504021203 65 0 0.0 0.0 0.00 0.00 0.00 69 1012.6
20260504021004 65 0 0.0 0.0 0.00 0.00 0.00 69 1012.8
20260504020603 65 0 0.0 0.0 0.00 0.00 0.00 69 1012.6
20260504020403 65 0 0.0 0.0 0.00 0.00 0.00 69 1012.7
20260504020203 65 0 0.0 0.0 0.00 0.00 0.00 69 1012.6
20260504020004 65 0 0.0 0.0 0.00 0.00 0.00 69 1012.6
20260504015803 65 0 0.0 0.0 0.00 0.00 0.00 67 1012.6
20260504015604 65 0 0.0 0.0 0.00 0.00 0.00 67 1012.6
20260504015404 66 0 0.0 0.0 0.00 0.00 0.00 67 1012.5
20260504015203 66 0 0.0 0.0 0.00 0.00 0.00 67 1012.5
20260504015003 66 0 0.0 0.0 0.00 0.00 0.00 66 1012.5
20260504014803 66 0 0.0 0.0 0.00 0.00 0.00 66 1012.5
20260504014404 66 0 0.0 0.0 0.00 0.00 0.00 65 1012.4
20260504013604 67 0 0.0 0.0 0.00 0.00 0.00 64 1012.5
20260504013403 67 0 0.0 0.0 0.00 0.00 0.00 63 1012.4
20260504013204 67 0 0.0 0.0 0.00 0.00 0.00 63 1012.5
20260504012804 67 0 0.0 0.0 0.00 0.00 0.00 61 1012.3
20260504012604 68 0 0.0 0.0 0.00 0.00 0.00 61 1012.6
20260504012404 68 0 0.0 0.0 0.00 0.00 0.00 61 1012.6
20260504012203 68 0 0.0 0.0 0.00 0.00 0.00 60 1012.5
20260504012003 68 0 0.0 0.0 0.00 0.00 0.00 60 1012.5
20260504011603 69 0 0.0 0.0 0.00 0.00 0.00 59 1012.4
20260504011203 69 0 0.0 0.0 0.00 0.00 0.00 59 1012.2
20260504011003 69 0 0.0 0.0 0.00 0.00 0.00 57 1012.3
20260504010803 69 0 0.0 0.0 0.00 0.00 0.00 57 1012.3
20260504010604 69 1 0.0 1.0 0.00 0.00 0.00 57 1012.3
20260504010003 70 1 0.0 3.0 0.00 0.00 0.00 57 1012.3
20260504005804 70 1 0.0 3.0 0.00 0.00 0.00 56 1012.1
20260504005604 70 1 0.0 3.0 0.00 0.00 0.00 56 1012.3
20260504005403 71 1 0.0 3.0 0.00 0.00 0.00 56 1012.2
20260504005204 71 1 0.0 3.0 0.00 0.00 0.00 56 1012.2
20260504004803 71 0 0.0 0.0 0.00 0.00 0.00 55 1012.2
20260504004603 71 0 0.0 0.0 0.00 0.00 0.00 54 1012.3
20260504004403 72 1 0.0 3.0 0.00 0.00 0.00 54 1012.2
20260504004204 72 1 0.0 3.0 0.00 0.00 0.00 54 1012.2